Powrót do katalogu

STARLINK-35529

AktywnyŁącznośćVLEO
NORAD 66259·PAYLOAD·🇺🇸 United States

Wystrzelony Oct 29, 2025 z Cape Canaveral Space Force Station

Loading…

Następne Przeloty (najbliższe 24 godziny)

TLE

ŚwieżeSource: CelesTrak SupGP

Epoka: Sep 14, 2026, 22:52 UTC

1 66259C 25245AB  26257.95326389 -.00019506  00000+0 -62732-3 0  2575
2 66259  53.1564 123.6532 0001161  81.1836 130.1873 15.31709212    17

Śledź STARLINK-35529 w czasie rzeczywistym z AllMySat

Download on the App Store